Year,Month,Day,Hour,Minute,Value (Times are PST for temperature in C)
2014,05,31,00,00,15.30
2014,05,31,00,01,15.30
2014,05,31,00,02,15.30
2014,05,31,00,03,15.30
2014,05,31,00,04,15.30
2014,05,31,00,05,15.30
2014,05,31,00,06,15.30
2014,05,31,00,07,15.30
2014,05,31,00,08,15.30
2014,05,31,00,09,15.30
2014,05,31,00,10,15.30
2014,05,31,00,11,15.30
2014,05,31,00,12,15.40
2014,05,31,00,13,15.40
2014,05,31,00,14,15.40
2014,05,31,00,15,15.40
2014,05,31,00,16,15.40
2014,05,31,00,17,15.40
2014,05,31,00,18,15.40
2014,05,31,00,19,15.40
2014,05,31,00,20,15.40
2014,05,31,00,21,15.40
2014,05,31,00,22,15.40
2014,05,31,00,23,15.40
2014,05,31,00,24,15.40
2014,05,31,00,25,15.40
2014,05,31,00,26,15.30
2014,05,31,00,27,15.30
2014,05,31,00,28,15.30
2014,05,31,00,29,15.30
2014,05,31,00,30,15.30
2014,05,31,00,31,15.30
2014,05,31,00,32,15.30
2014,05,31,00,33,15.30
2014,05,31,00,34,15.20
2014,05,31,00,35,15.20
2014,05,31,00,36,15.20
2014,05,31,00,37,15.20
2014,05,31,00,38,15.20
2014,05,31,00,39,15.20
2014,05,31,00,40,15.20
2014,05,31,00,41,15.10
2014,05,31,00,42,15.10
2014,05,31,00,43,15.10
2014,05,31,00,44,15.10
2014,05,31,00,45,15.10
2014,05,31,00,46,15.10
2014,05,31,00,47,15.10
2014,05,31,00,48,15.10
2014,05,31,00,49,15.10
2014,05,31,00,50,15.10
2014,05,31,00,51,15.10
2014,05,31,00,52,15.10
2014,05,31,00,53,15.10
2014,05,31,00,54,15.10
2014,05,31,00,55,15.10
2014,05,31,00,56,15.10
2014,05,31,00,57,15.10
2014,05,31,00,58,15.10
2014,05,31,00,59,15.10
2014,05,31,01,00,15.10
2014,05,31,01,01,15.10
2014,05,31,01,02,15.10
2014,05,31,01,03,15.10
2014,05,31,01,04,15.10
2014,05,31,01,05,15.10
2014,05,31,01,06,15.10
2014,05,31,01,07,15.10
2014,05,31,01,08,15.20
2014,05,31,01,09,15.20
2014,05,31,01,10,15.20
2014,05,31,01,11,15.20
2014,05,31,01,12,15.10
2014,05,31,01,13,15.20
2014,05,31,01,14,15.10
2014,05,31,01,15,15.10
2014,05,31,01,16,15.10
2014,05,31,01,17,15.20
2014,05,31,01,18,15.20
2014,05,31,01,19,15.20
2014,05,31,01,20,15.20
2014,05,31,01,21,15.20
2014,05,31,01,22,15.20
2014,05,31,01,23,15.20
2014,05,31,01,24,15.20
2014,05,31,01,25,15.20
2014,05,31,01,26,15.20
2014,05,31,01,27,15.20
2014,05,31,01,28,15.20
2014,05,31,01,29,15.20
2014,05,31,01,30,15.20
2014,05,31,01,31,15.20
2014,05,31,01,32,15.20
2014,05,31,01,33,15.20
2014,05,31,01,34,15.20
2014,05,31,01,35,15.20
2014,05,31,01,36,15.20
2014,05,31,01,37,15.20
2014,05,31,01,38,15.20
2014,05,31,01,39,15.20
2014,05,31,01,40,15.20
2014,05,31,01,41,15.20
2014,05,31,01,42,15.20
2014,05,31,01,43,15.20
2014,05,31,01,44,15.20
2014,05,31,01,45,15.20
2014,05,31,01,46,15.20
2014,05,31,01,47,15.20
2014,05,31,01,48,15.20
2014,05,31,01,49,15.20
2014,05,31,01,50,15.20
2014,05,31,01,51,15.20
2014,05,31,01,52,15.20
2014,05,31,01,53,15.20
2014,05,31,01,54,15.20
2014,05,31,01,55,15.20
2014,05,31,01,56,15.20
2014,05,31,01,57,15.20
2014,05,31,01,58,15.20
2014,05,31,01,59,15.10
2014,05,31,02,00,15.10
2014,05,31,02,01,15.10
2014,05,31,02,02,15.10
2014,05,31,02,03,15.10
2014,05,31,02,04,15.10
2014,05,31,02,05,15.10
2014,05,31,02,06,15.10
2014,05,31,02,07,15.10
2014,05,31,02,08,15.10
2014,05,31,02,09,15.10
2014,05,31,02,10,15.10
2014,05,31,02,11,15.10
2014,05,31,02,12,15.10
2014,05,31,02,13,15.10
2014,05,31,02,14,15.10
2014,05,31,02,15,15.10
2014,05,31,02,16,15.10
2014,05,31,02,17,15.10
2014,05,31,02,18,15.10
2014,05,31,02,19,15.10
2014,05,31,02,20,15.20
2014,05,31,02,21,15.20
2014,05,31,02,22,15.20
2014,05,31,02,23,15.20
2014,05,31,02,24,15.20
2014,05,31,02,25,15.20
2014,05,31,02,26,15.20
2014,05,31,02,27,15.20
2014,05,31,02,28,15.20
2014,05,31,02,29,15.20
2014,05,31,02,30,15.20
2014,05,31,02,31,15.20
2014,05,31,02,32,15.20
2014,05,31,02,33,15.20
2014,05,31,02,34,15.20
2014,05,31,02,35,15.20
2014,05,31,02,36,15.10
2014,05,31,02,37,15.10
2014,05,31,02,38,15.10
2014,05,31,02,39,15.10
2014,05,31,02,40,15.10
2014,05,31,02,41,15.10
2014,05,31,02,42,15.10
2014,05,31,02,43,15.00
2014,05,31,02,44,15.00
2014,05,31,02,45,15.00
2014,05,31,02,46,15.00
2014,05,31,02,47,15.00
2014,05,31,02,48,15.00
2014,05,31,02,49,15.00
2014,05,31,02,50,15.00
2014,05,31,02,51,15.00
2014,05,31,02,52,15.00
2014,05,31,02,53,15.00
2014,05,31,02,54,15.00
2014,05,31,02,55,14.90
2014,05,31,02,56,14.90
2014,05,31,02,57,14.90
2014,05,31,02,58,14.90
2014,05,31,02,59,14.90
2014,05,31,03,00,14.90
2014,05,31,03,01,14.90
2014,05,31,03,02,14.90
2014,05,31,03,03,14.90
2014,05,31,03,04,14.90
2014,05,31,03,05,14.90
2014,05,31,03,06,14.90
2014,05,31,03,07,14.90
2014,05,31,03,08,14.90
2014,05,31,03,09,14.90
2014,05,31,03,10,14.90
2014,05,31,03,11,14.90
2014,05,31,03,12,14.90
2014,05,31,03,13,14.90
2014,05,31,03,14,14.90
2014,05,31,03,15,14.80
2014,05,31,03,16,14.80
2014,05,31,03,17,14.80
2014,05,31,03,18,14.80
2014,05,31,03,19,14.70
2014,05,31,03,20,14.70
2014,05,31,03,21,14.60
2014,05,31,03,22,14.60
2014,05,31,03,23,14.60
2014,05,31,03,24,14.60
2014,05,31,03,25,14.50
2014,05,31,03,26,14.50
2014,05,31,03,27,14.50
2014,05,31,03,28,14.40
2014,05,31,03,29,14.40
2014,05,31,03,30,14.40
2014,05,31,03,31,14.30
2014,05,31,03,32,14.30
2014,05,31,03,33,14.30
2014,05,31,03,34,14.30
2014,05,31,03,35,14.20
2014,05,31,03,36,14.20
2014,05,31,03,37,14.20
2014,05,31,03,38,14.20
2014,05,31,03,39,14.20
2014,05,31,03,40,14.20
2014,05,31,03,41,14.20
2014,05,31,03,42,14.20
2014,05,31,03,43,14.10
2014,05,31,03,44,14.10
2014,05,31,03,45,14.10
2014,05,31,03,46,14.00
2014,05,31,03,47,14.00
2014,05,31,03,48,14.00
2014,05,31,03,49,13.90
2014,05,31,03,50,13.90
2014,05,31,03,51,13.80
2014,05,31,03,52,13.80
2014,05,31,03,53,13.80
2014,05,31,03,54,13.70
2014,05,31,03,55,13.70
2014,05,31,03,56,13.70
2014,05,31,03,57,13.60
2014,05,31,03,58,13.60
2014,05,31,03,59,13.60
2014,05,31,04,00,13.50
2014,05,31,04,01,13.50
2014,05,31,04,02,13.50
2014,05,31,04,03,13.40
2014,05,31,04,04,13.40
2014,05,31,04,05,13.40
2014,05,31,04,06,13.40
2014,05,31,04,07,13.40
2014,05,31,04,08,13.40
2014,05,31,04,09,13.40
2014,05,31,04,10,13.40
2014,05,31,04,11,13.40
2014,05,31,04,12,13.40
2014,05,31,04,13,13.30
2014,05,31,04,14,13.30
2014,05,31,04,15,13.30
2014,05,31,04,16,13.40
2014,05,31,04,17,13.40
2014,05,31,04,18,13.40
2014,05,31,04,19,13.40
2014,05,31,04,20,13.40
2014,05,31,04,21,13.40
2014,05,31,04,22,13.40
2014,05,31,04,23,13.40
2014,05,31,04,24,13.40
2014,05,31,04,25,13.40
2014,05,31,04,26,13.40
2014,05,31,04,27,13.50
2014,05,31,04,28,13.50
2014,05,31,04,29,13.60
2014,05,31,04,30,13.60
2014,05,31,04,31,13.60
2014,05,31,04,32,13.60
2014,05,31,04,33,13.60
2014,05,31,04,34,13.60
2014,05,31,04,35,13.60
2014,05,31,04,36,13.60
2014,05,31,04,37,13.60
2014,05,31,04,38,13.50
2014,05,31,04,39,13.50
2014,05,31,04,40,13.50
2014,05,31,04,41,13.40
2014,05,31,04,42,13.40
2014,05,31,04,43,13.40
2014,05,31,04,44,13.30
2014,05,31,04,45,13.30
2014,05,31,04,46,13.30
2014,05,31,04,47,13.30
2014,05,31,04,48,13.30
2014,05,31,04,49,13.20
2014,05,31,04,50,13.20
2014,05,31,04,51,13.20
2014,05,31,04,52,13.20
2014,05,31,04,53,13.10
2014,05,31,04,54,13.10
2014,05,31,04,55,13.10
2014,05,31,04,56,13.00
2014,05,31,04,57,13.00
2014,05,31,04,58,13.00
2014,05,31,04,59,12.90
2014,05,31,05,00,12.90
2014,05,31,05,01,12.80
2014,05,31,05,02,12.80
2014,05,31,05,03,12.80
2014,05,31,05,04,12.80
2014,05,31,05,05,12.80
2014,05,31,05,06,12.70
2014,05,31,05,07,12.70
2014,05,31,05,08,12.70
2014,05,31,05,09,12.70
2014,05,31,05,10,12.70
2014,05,31,05,11,12.70
2014,05,31,05,12,12.60
2014,05,31,05,13,12.60
2014,05,31,05,14,12.60
2014,05,31,05,15,12.60
2014,05,31,05,16,12.60
2014,05,31,05,17,12.60
2014,05,31,05,18,12.60
2014,05,31,05,19,12.60
2014,05,31,05,20,12.60
2014,05,31,05,21,12.50
2014,05,31,05,22,12.50
2014,05,31,05,23,12.50
2014,05,31,05,24,12.50
2014,05,31,05,25,12.50
2014,05,31,05,26,12.50
2014,05,31,05,27,12.50
2014,05,31,05,28,12.40
2014,05,31,05,29,12.50
2014,05,31,05,30,12.40
2014,05,31,05,31,12.50
2014,05,31,05,32,12.50
2014,05,31,05,33,12.40
2014,05,31,05,34,12.40
2014,05,31,05,35,12.40
2014,05,31,05,36,12.40
2014,05,31,05,37,12.40
2014,05,31,05,38,12.40
2014,05,31,05,39,12.40
2014,05,31,05,40,12.40
2014,05,31,05,41,12.40
2014,05,31,05,42,12.30
2014,05,31,05,43,12.30
2014,05,31,05,44,12.30
2014,05,31,05,45,12.30
2014,05,31,05,46,12.30
2014,05,31,05,47,12.30
2014,05,31,05,48,12.30
2014,05,31,05,49,12.30
2014,05,31,05,50,12.30
2014,05,31,05,51,12.30
2014,05,31,05,52,12.30
2014,05,31,05,53,12.30
2014,05,31,05,54,12.40
2014,05,31,05,55,12.40
2014,05,31,05,56,12.50
2014,05,31,05,57,12.50
2014,05,31,05,58,12.60
2014,05,31,05,59,12.60
2014,05,31,06,00,12.70
2014,05,31,06,01,12.70
2014,05,31,06,02,12.70
2014,05,31,06,03,12.80
2014,05,31,06,04,12.80
2014,05,31,06,05,12.80
2014,05,31,06,06,12.80
2014,05,31,06,07,12.90
2014,05,31,06,08,12.90
2014,05,31,06,09,12.90
2014,05,31,06,10,13.00
2014,05,31,06,11,13.00
2014,05,31,06,12,13.10
2014,05,31,06,13,13.10
2014,05,31,06,14,13.20
2014,05,31,06,15,13.20
2014,05,31,06,16,13.20
2014,05,31,06,17,13.20
2014,05,31,06,18,13.30
2014,05,31,06,19,13.30
2014,05,31,06,20,13.30
2014,05,31,06,21,13.30
2014,05,31,06,22,13.30
2014,05,31,06,23,13.30
2014,05,31,06,24,13.30
2014,05,31,06,25,13.20
2014,05,31,06,26,13.20
2014,05,31,06,27,13.20
2014,05,31,06,28,13.20
2014,05,31,06,29,13.20
2014,05,31,06,30,13.10
2014,05,31,06,31,13.10
2014,05,31,06,32,13.10
2014,05,31,06,33,13.10
2014,05,31,06,34,13.10
2014,05,31,06,35,13.00
2014,05,31,06,36,13.00
2014,05,31,06,37,12.90
2014,05,31,06,38,12.90
2014,05,31,06,39,12.90
2014,05,31,06,40,12.90
2014,05,31,06,41,12.80
2014,05,31,06,42,12.80
2014,05,31,06,43,12.80
2014,05,31,06,44,12.80
2014,05,31,06,45,12.80
2014,05,31,06,46,12.80
2014,05,31,06,47,12.80
2014,05,31,06,48,12.80
2014,05,31,06,49,12.80
2014,05,31,06,50,12.80
2014,05,31,06,51,12.80
2014,05,31,06,52,12.80
2014,05,31,06,53,12.80
2014,05,31,06,54,12.80
2014,05,31,06,55,12.80
2014,05,31,06,56,12.80
2014,05,31,06,57,12.80
2014,05,31,06,58,12.80
2014,05,31,06,59,12.80
2014,05,31,07,00,12.80
2014,05,31,07,01,12.80
2014,05,31,07,02,12.80
2014,05,31,07,03,12.80
2014,05,31,07,04,12.90
2014,05,31,07,05,12.90
2014,05,31,07,06,12.90
2014,05,31,07,07,13.00
2014,05,31,07,08,13.00
2014,05,31,07,09,13.10
2014,05,31,07,10,13.10
2014,05,31,07,11,13.20
2014,05,31,07,12,13.20
2014,05,31,07,13,13.30
2014,05,31,07,14,13.30
2014,05,31,07,15,13.30
2014,05,31,07,16,13.30
2014,05,31,07,17,13.40
2014,05,31,07,18,13.40
2014,05,31,07,19,13.50
2014,05,31,07,20,13.50
2014,05,31,07,21,13.60
2014,05,31,07,22,13.60
2014,05,31,07,23,13.60
2014,05,31,07,24,13.70
2014,05,31,07,25,13.70
2014,05,31,07,26,13.70
2014,05,31,07,27,13.80
2014,05,31,07,28,13.80
2014,05,31,07,29,13.90
2014,05,31,07,30,13.90
2014,05,31,07,31,14.00
2014,05,31,07,32,14.00
2014,05,31,07,33,14.00
2014,05,31,07,34,14.00
2014,05,31,07,35,14.10
2014,05,31,07,36,14.10
2014,05,31,07,37,14.10
2014,05,31,07,38,14.10
2014,05,31,07,39,14.20
2014,05,31,07,40,14.20
2014,05,31,07,41,14.20
2014,05,31,07,42,14.30
2014,05,31,07,43,14.30
2014,05,31,07,44,14.20
2014,05,31,07,45,14.20
2014,05,31,07,46,14.20
2014,05,31,07,47,14.20
2014,05,31,07,48,14.20
2014,05,31,07,49,14.20
2014,05,31,07,50,14.20
2014,05,31,07,51,14.20
2014,05,31,07,52,14.20
2014,05,31,07,53,14.20
2014,05,31,07,54,14.20
2014,05,31,07,55,14.20
2014,05,31,07,56,14.20
2014,05,31,07,57,14.20
2014,05,31,07,58,14.20
2014,05,31,07,59,14.20
2014,05,31,08,00,14.20
2014,05,31,08,01,14.20
2014,05,31,08,02,14.20
2014,05,31,08,03,14.20
2014,05,31,08,04,14.20
2014,05,31,08,05,14.20
2014,05,31,08,06,14.20
2014,05,31,08,07,14.30
2014,05,31,08,08,14.30
2014,05,31,08,09,14.30
2014,05,31,08,10,14.40
2014,05,31,08,11,14.40
2014,05,31,08,12,14.50
2014,05,31,08,13,14.60
2014,05,31,08,14,14.60
2014,05,31,08,15,14.60
2014,05,31,08,16,14.60
2014,05,31,08,17,14.60
2014,05,31,08,18,14.60
2014,05,31,08,19,14.60
2014,05,31,08,20,14.60
2014,05,31,08,21,14.60
2014,05,31,08,22,14.60
2014,05,31,08,23,14.60
2014,05,31,08,24,14.60
2014,05,31,08,25,14.60
2014,05,31,08,26,14.70
2014,05,31,08,27,14.70
2014,05,31,08,28,14.70
2014,05,31,08,29,14.70
2014,05,31,08,30,14.70
2014,05,31,08,31,14.70
2014,05,31,08,32,14.70
2014,05,31,08,33,14.70
2014,05,31,08,34,14.70
2014,05,31,08,35,14.70
2014,05,31,08,36,14.70
2014,05,31,08,37,14.80
2014,05,31,08,38,14.80
2014,05,31,08,39,14.80
2014,05,31,08,40,14.80
2014,05,31,08,41,14.90
2014,05,31,08,42,14.90
2014,05,31,08,43,14.90
2014,05,31,08,44,15.00
2014,05,31,08,45,15.00
2014,05,31,08,46,15.10
2014,05,31,08,47,15.10
2014,05,31,08,48,15.10
2014,05,31,08,49,15.10
2014,05,31,08,50,15.10
2014,05,31,08,51,15.10
2014,05,31,08,52,15.10
2014,05,31,08,53,15.20
2014,05,31,08,54,15.20
2014,05,31,08,55,15.30
2014,05,31,08,56,15.30
2014,05,31,08,57,15.30
2014,05,31,08,58,15.40
2014,05,31,08,59,15.40
2014,05,31,09,00,15.40
2014,05,31,09,01,15.40
2014,05,31,09,02,15.50
2014,05,31,09,03,15.50
2014,05,31,09,04,15.60
2014,05,31,09,05,15.60
2014,05,31,09,06,15.70
2014,05,31,09,07,15.70
2014,05,31,09,08,15.80
2014,05,31,09,09,15.80
2014,05,31,09,10,15.90
2014,05,31,09,11,16.00
2014,05,31,09,12,16.00
2014,05,31,09,13,16.10
2014,05,31,09,14,16.10
2014,05,31,09,15,16.10
2014,05,31,09,16,16.20
2014,05,31,09,17,16.10
2014,05,31,09,18,16.10
2014,05,31,09,19,16.10
2014,05,31,09,20,16.10
2014,05,31,09,21,16.10
2014,05,31,09,22,16.10
2014,05,31,09,23,16.20
2014,05,31,09,24,16.20
2014,05,31,09,25,16.20
2014,05,31,09,26,16.20
2014,05,31,09,27,16.20
2014,05,31,09,28,16.20
2014,05,31,09,29,16.20
2014,05,31,09,30,16.20
2014,05,31,09,31,16.30
2014,05,31,09,32,16.30
2014,05,31,09,33,16.30
2014,05,31,09,34,16.20
2014,05,31,09,35,16.20
2014,05,31,09,36,16.20
2014,05,31,09,37,16.20
2014,05,31,09,38,16.30
2014,05,31,09,39,16.30
2014,05,31,09,40,16.30
2014,05,31,09,41,16.30
2014,05,31,09,42,16.30
2014,05,31,09,43,16.40
2014,05,31,09,44,16.40
2014,05,31,09,45,16.50
2014,05,31,09,46,16.70
2014,05,31,09,47,16.80
2014,05,31,09,48,16.80
2014,05,31,09,49,16.90
2014,05,31,09,50,17.00
2014,05,31,09,51,17.10
2014,05,31,09,52,17.20
2014,05,31,09,53,17.30
2014,05,31,09,54,17.30
2014,05,31,09,55,17.40
2014,05,31,09,56,17.40
2014,05,31,09,57,17.40
2014,05,31,09,58,17.40
2014,05,31,09,59,17.40
2014,05,31,10,00,17.40
2014,05,31,10,01,17.30
2014,05,31,10,02,17.40
2014,05,31,10,03,17.40
2014,05,31,10,04,17.40
2014,05,31,10,05,17.50
2014,05,31,10,06,17.50
2014,05,31,10,07,17.60
2014,05,31,10,08,17.60
2014,05,31,10,09,17.70
2014,05,31,10,10,17.60
2014,05,31,10,11,17.40
2014,05,31,10,12,17.30
2014,05,31,10,13,17.20
2014,05,31,10,14,17.20
2014,05,31,10,15,17.20
2014,05,31,10,16,17.10
2014,05,31,10,17,17.20
2014,05,31,10,18,17.20
2014,05,31,10,19,17.30
2014,05,31,10,20,17.30
2014,05,31,10,21,17.40
2014,05,31,10,22,17.50
2014,05,31,10,23,17.50
2014,05,31,10,24,17.60
2014,05,31,10,25,17.70
2014,05,31,10,26,17.70
2014,05,31,10,27,17.70
2014,05,31,10,28,17.80
2014,05,31,10,29,17.80
2014,05,31,10,30,17.80
2014,05,31,10,31,17.90
2014,05,31,10,32,17.90
2014,05,31,10,33,18.00
2014,05,31,10,34,18.00
2014,05,31,10,35,18.10
2014,05,31,10,36,18.10
2014,05,31,10,37,18.10
2014,05,31,10,38,18.10
2014,05,31,10,39,18.20
2014,05,31,10,40,18.20
2014,05,31,10,41,18.30
2014,05,31,10,42,18.30
2014,05,31,10,43,18.40
2014,05,31,10,44,18.40
2014,05,31,10,45,18.50
2014,05,31,10,46,18.60
2014,05,31,10,47,18.60
2014,05,31,10,48,18.70
2014,05,31,10,49,18.80
2014,05,31,10,50,18.80
2014,05,31,10,51,18.80
2014,05,31,10,52,18.80
2014,05,31,10,53,18.80
2014,05,31,10,54,18.80
2014,05,31,10,55,18.80
2014,05,31,10,56,18.80
2014,05,31,10,57,18.80
2014,05,31,10,58,18.80
2014,05,31,10,59,18.80
2014,05,31,11,00,18.90
2014,05,31,11,01,19.00
2014,05,31,11,02,18.90
2014,05,31,11,03,18.90
2014,05,31,11,04,18.90
2014,05,31,11,05,18.90
2014,05,31,11,06,18.90
2014,05,31,11,07,18.90
2014,05,31,11,08,18.80
2014,05,31,11,09,18.80
2014,05,31,11,10,18.80
2014,05,31,11,11,18.70
2014,05,31,11,12,18.70
2014,05,31,11,13,18.70
2014,05,31,11,14,18.70
2014,05,31,11,15,18.80
2014,05,31,11,16,18.80
2014,05,31,11,17,18.90
2014,05,31,11,18,19.00
2014,05,31,11,19,19.00
2014,05,31,11,20,19.10
2014,05,31,11,21,19.10
2014,05,31,11,22,19.20
2014,05,31,11,23,19.30
2014,05,31,11,24,19.30
2014,05,31,11,25,19.30
2014,05,31,11,26,19.30
2014,05,31,11,27,19.30
2014,05,31,11,28,19.30
2014,05,31,11,29,19.30
2014,05,31,11,30,19.40
2014,05,31,11,31,19.40
2014,05,31,11,32,19.40
2014,05,31,11,33,19.40
2014,05,31,11,34,19.40
2014,05,31,11,35,19.40
2014,05,31,11,36,19.40
2014,05,31,11,37,19.30
2014,05,31,11,38,19.40
2014,05,31,11,39,19.30
2014,05,31,11,40,19.30
2014,05,31,11,41,19.30
2014,05,31,11,42,19.30
2014,05,31,11,43,19.30
2014,05,31,11,44,19.40
2014,05,31,11,45,19.40
2014,05,31,11,46,19.50
2014,05,31,11,47,19.50
2014,05,31,11,48,19.60
2014,05,31,11,49,19.60
2014,05,31,11,50,19.70
2014,05,31,11,51,19.70
2014,05,31,11,52,19.70
2014,05,31,11,53,19.70
2014,05,31,11,54,19.70
2014,05,31,11,55,19.60
2014,05,31,11,56,19.60
2014,05,31,11,57,19.60
2014,05,31,11,58,19.60
2014,05,31,11,59,19.70
2014,05,31,12,00,19.70
2014,05,31,12,01,19.70
2014,05,31,12,02,19.70
2014,05,31,12,03,19.70
2014,05,31,12,04,19.80
2014,05,31,12,05,19.80
2014,05,31,12,06,19.80
2014,05,31,12,07,19.80
2014,05,31,12,08,19.90
2014,05,31,12,09,19.90
2014,05,31,12,10,19.80
2014,05,31,12,11,19.80
2014,05,31,12,12,19.80
2014,05,31,12,13,19.70
2014,05,31,12,14,19.70
2014,05,31,12,15,19.60
2014,05,31,12,16,19.60
2014,05,31,12,17,19.50
2014,05,31,12,18,19.40
2014,05,31,12,19,19.40
2014,05,31,12,20,19.50
2014,05,31,12,21,19.50
2014,05,31,12,22,19.40
2014,05,31,12,23,19.40
2014,05,31,12,24,19.30
2014,05,31,12,25,19.30
2014,05,31,12,26,19.30
2014,05,31,12,27,19.20
2014,05,31,12,28,19.20
2014,05,31,12,29,19.20
2014,05,31,12,30,19.20
2014,05,31,12,31,19.30
2014,05,31,12,32,19.40
2014,05,31,12,33,19.50
2014,05,31,12,34,19.40
2014,05,31,12,35,19.40
2014,05,31,12,36,19.30
2014,05,31,12,37,19.30
2014,05,31,12,38,19.20
2014,05,31,12,39,19.20
2014,05,31,12,40,19.30
2014,05,31,12,41,19.30
2014,05,31,12,42,19.40
2014,05,31,12,43,19.50
2014,05,31,12,44,19.60
2014,05,31,12,45,19.70
2014,05,31,12,46,19.80
2014,05,31,12,47,19.90
2014,05,31,12,48,20.00
2014,05,31,12,49,20.10
2014,05,31,12,50,20.20
2014,05,31,12,51,20.30
2014,05,31,12,52,20.40
2014,05,31,12,53,20.50
2014,05,31,12,54,20.50
2014,05,31,12,55,20.50
2014,05,31,12,56,20.50
2014,05,31,12,57,20.40
2014,05,31,12,58,20.40
2014,05,31,12,59,20.30
2014,05,31,13,00,20.30
2014,05,31,13,01,20.20
2014,05,31,13,02,20.20
2014,05,31,13,03,20.00
2014,05,31,13,04,19.90
2014,05,31,13,05,19.80
2014,05,31,13,06,19.80
2014,05,31,13,07,19.80
2014,05,31,13,08,19.80
2014,05,31,13,09,19.90
2014,05,31,13,10,19.90
2014,05,31,13,11,19.90
2014,05,31,13,12,19.90
2014,05,31,13,13,19.90
2014,05,31,13,14,19.90
2014,05,31,13,15,19.90
2014,05,31,13,16,19.80
2014,05,31,13,17,19.80
2014,05,31,13,18,19.80
2014,05,31,13,19,19.80
2014,05,31,13,20,19.80
2014,05,31,13,21,19.80
2014,05,31,13,22,19.90
2014,05,31,13,23,19.90
2014,05,31,13,24,19.90
2014,05,31,13,25,20.00
2014,05,31,13,26,19.90
2014,05,31,13,27,19.80
2014,05,31,13,28,19.80
2014,05,31,13,29,19.80
2014,05,31,13,30,19.90
2014,05,31,13,31,19.90
2014,05,31,13,32,20.00
2014,05,31,13,33,20.00
2014,05,31,13,34,20.00
2014,05,31,13,35,20.00
2014,05,31,13,36,19.90
2014,05,31,13,37,19.90
2014,05,31,13,38,19.90
2014,05,31,13,39,19.90
2014,05,31,13,40,19.90
2014,05,31,13,41,19.80
2014,05,31,13,42,19.80
2014,05,31,13,43,19.80
2014,05,31,13,44,19.70
2014,05,31,13,45,19.60
2014,05,31,13,46,19.60
2014,05,31,13,47,19.60
2014,05,31,13,48,19.60
2014,05,31,13,49,19.60
2014,05,31,13,50,19.70
2014,05,31,13,51,19.70
2014,05,31,13,52,19.70
2014,05,31,13,53,19.60
2014,05,31,13,54,19.60
2014,05,31,13,55,19.60
2014,05,31,13,56,19.70
2014,05,31,13,57,19.60
2014,05,31,13,58,19.70
2014,05,31,13,59,19.80
2014,05,31,14,00,20.00
2014,05,31,14,01,20.10
2014,05,31,14,02,20.10
2014,05,31,14,03,20.10
2014,05,31,14,04,20.20
2014,05,31,14,05,20.20
2014,05,31,14,06,20.20
2014,05,31,14,07,20.20
2014,05,31,14,08,20.20
2014,05,31,14,09,20.20
2014,05,31,14,10,20.20
2014,05,31,14,11,20.20
2014,05,31,14,12,20.20
2014,05,31,14,13,20.20
2014,05,31,14,14,20.20
2014,05,31,14,15,20.20
2014,05,31,14,16,20.20
2014,05,31,14,17,20.20
2014,05,31,14,18,20.30
2014,05,31,14,19,20.30
2014,05,31,14,20,20.40
2014,05,31,14,21,20.40
2014,05,31,14,22,20.40
2014,05,31,14,23,20.30
2014,05,31,14,24,20.30
2014,05,31,14,25,20.40
2014,05,31,14,26,20.40
2014,05,31,14,27,20.50
2014,05,31,14,28,20.50
2014,05,31,14,29,20.50
2014,05,31,14,30,20.50
2014,05,31,14,31,20.50
2014,05,31,14,32,20.50
2014,05,31,14,33,20.50
2014,05,31,14,34,20.60
2014,05,31,14,35,20.60
2014,05,31,14,36,20.70
2014,05,31,14,37,20.80
2014,05,31,14,38,20.90
2014,05,31,14,39,21.00
2014,05,31,14,40,21.00
2014,05,31,14,41,21.10
2014,05,31,14,42,21.10
2014,05,31,14,43,21.00
2014,05,31,14,44,20.90
2014,05,31,14,45,20.80
2014,05,31,14,46,20.70
2014,05,31,14,47,20.60
2014,05,31,14,48,20.60
2014,05,31,14,49,20.70
2014,05,31,14,50,20.70
2014,05,31,14,51,20.70
2014,05,31,14,52,20.70
2014,05,31,14,53,20.70
2014,05,31,14,54,20.60
2014,05,31,14,55,20.60
2014,05,31,14,56,20.70
2014,05,31,14,57,20.80
2014,05,31,14,58,20.80
2014,05,31,14,59,20.80
2014,05,31,15,00,20.80
2014,05,31,15,01,20.80
2014,05,31,15,02,20.80
2014,05,31,15,03,20.70
2014,05,31,15,04,20.70
2014,05,31,15,05,20.70
2014,05,31,15,06,20.70
2014,05,31,15,07,20.60
2014,05,31,15,08,20.50
2014,05,31,15,09,20.50
2014,05,31,15,10,20.40
2014,05,31,15,11,20.40
2014,05,31,15,12,20.30
2014,05,31,15,13,20.30
2014,05,31,15,14,20.30
2014,05,31,15,15,20.20
2014,05,31,15,16,20.20
2014,05,31,15,17,20.20
2014,05,31,15,18,20.30
2014,05,31,15,19,20.30
2014,05,31,15,20,20.20
2014,05,31,15,21,20.20
2014,05,31,15,22,20.20
2014,05,31,15,23,20.20
2014,05,31,15,24,20.20
2014,05,31,15,25,20.30
2014,05,31,15,26,20.30
2014,05,31,15,27,20.30
2014,05,31,15,28,20.30
2014,05,31,15,29,20.30
2014,05,31,15,30,20.30
2014,05,31,15,31,20.30
2014,05,31,15,32,20.20
2014,05,31,15,33,20.10
2014,05,31,15,34,20.10
2014,05,31,15,35,20.00
2014,05,31,15,36,19.90
2014,05,31,15,37,19.90
2014,05,31,15,38,19.80
2014,05,31,15,39,19.80
2014,05,31,15,40,19.80
2014,05,31,15,41,19.90
2014,05,31,15,42,19.90
2014,05,31,15,43,19.90
2014,05,31,15,44,19.90
2014,05,31,15,45,19.90
2014,05,31,15,46,19.90
2014,05,31,15,47,19.80
2014,05,31,15,48,19.80
2014,05,31,15,49,19.80
2014,05,31,15,50,19.80
2014,05,31,15,51,19.80
2014,05,31,15,52,19.90
2014,05,31,15,53,19.90
2014,05,31,15,54,19.90
2014,05,31,15,55,19.90
2014,05,31,15,56,20.00
2014,05,31,15,57,20.00
2014,05,31,15,58,20.00
2014,05,31,15,59,20.00
2014,05,31,16,00,20.00
2014,05,31,16,01,20.10
2014,05,31,16,02,20.20
2014,05,31,16,03,20.30
2014,05,31,16,04,20.40
2014,05,31,16,05,20.40
2014,05,31,16,06,20.40
2014,05,31,16,07,20.40
2014,05,31,16,08,20.40
2014,05,31,16,09,20.40
2014,05,31,16,10,20.50
2014,05,31,16,11,20.50
2014,05,31,16,12,20.50
2014,05,31,16,13,20.60
2014,05,31,16,14,20.60
2014,05,31,16,15,20.60
2014,05,31,16,16,20.60
2014,05,31,16,17,20.70
2014,05,31,16,18,20.80
2014,05,31,16,19,20.80
2014,05,31,16,20,20.90
2014,05,31,16,21,20.90
2014,05,31,16,22,20.90
2014,05,31,16,23,20.90
2014,05,31,16,24,20.90
2014,05,31,16,25,20.90
2014,05,31,16,26,20.90
2014,05,31,16,27,21.00
2014,05,31,16,28,21.00
2014,05,31,16,29,20.90
2014,05,31,16,30,21.00
2014,05,31,16,31,21.00
2014,05,31,16,32,21.00
2014,05,31,16,33,21.10
2014,05,31,16,34,21.10
2014,05,31,16,35,21.10
2014,05,31,16,36,21.20
2014,05,31,16,37,21.20
2014,05,31,16,38,21.20
2014,05,31,16,39,21.10
2014,05,31,16,40,21.20
2014,05,31,16,41,21.20
2014,05,31,16,42,21.20
2014,05,31,16,43,21.30
2014,05,31,16,44,21.30
2014,05,31,16,45,21.50
2014,05,31,16,46,21.60
2014,05,31,16,47,21.70
2014,05,31,16,48,21.80
2014,05,31,16,49,21.90
2014,05,31,16,50,22.00
2014,05,31,16,51,22.10
2014,05,31,16,52,22.10
2014,05,31,16,53,22.10
2014,05,31,16,54,22.10
2014,05,31,16,55,22.10
2014,05,31,16,56,22.20
2014,05,31,16,57,22.20
2014,05,31,16,58,22.20
2014,05,31,16,59,22.20
2014,05,31,17,00,22.20
2014,05,31,17,01,22.30
2014,05,31,17,02,22.30
2014,05,31,17,03,22.40
2014,05,31,17,04,22.50
2014,05,31,17,05,22.50
2014,05,31,17,06,22.60
2014,05,31,17,07,22.70
2014,05,31,17,08,22.80
2014,05,31,17,09,22.90
2014,05,31,17,10,22.90
2014,05,31,17,11,22.90
2014,05,31,17,12,22.90
2014,05,31,17,13,22.90
2014,05,31,17,14,22.90
2014,05,31,17,15,23.00
2014,05,31,17,16,23.10
2014,05,31,17,17,23.10
2014,05,31,17,18,23.20
2014,05,31,17,19,23.30